Date String (YYYY-MM-DD hh:mm:ss) UTC,Instrument flags,Ambient pressure (hPa),Sample flow (lpm),Bypass flow (lpm),Sample temperature (°C),Ambient temperature (°C),ASC tube jacket temperature (°C),LED temperature (°C),Box temperature (°C),Sample RH (%),Span deviation,Mass concentration (μg/m³),Mass concentration (μg/m³),Mass concentration (μg/m³)
DateTimeUTC,F1_M11,P_M11,Q1_M11,Q2_M11,T1_M11,T2_M11,T3_M11,T4_M11,T5_M11,U1_M11,ZSPAN_M11,X0_M11,X2_M11,X1_M11
2022-12-05 02:00:00,,0818.7,5.00,0.00,26.6,24.9,00.0,35.6,28.4,12.4,0000.4,0015.84,0010.26,0009.18
2022-12-05 02:01:00,,0818.7,5.00,0.00,26.5,24.9,00.0,35.6,28.3,12.5,0001.6,0015.83,0010.29,0009.16
2022-12-05 02:02:00,,0818.7,4.99,0.00,26.5,24.8,00.0,35.6,28.3,12.4,0001.6,0015.45,0010.27,0009.13
2022-12-05 02:03:00,,0818.6,4.99,0.00,26.5,24.8,00.0,35.6,28.3,12.5,0001.0,0015.11,0010.19,0009.08
2022-12-05 02:04:00,,0818.5,5.00,0.00,26.5,24.7,00.0,35.5,28.3,12.5,0002.2,0014.94,0010.10,0009.03
2022-12-05 02:05:00,,0818.5,4.99,0.00,26.4,24.5,00.0,35.5,28.2,12.5,0003.0,0014.93,0010.01,0008.94
2022-12-05 02:06:00,,0818.6,5.00,0.00,26.4,24.4,00.0,35.5,28.2,12.5,0003.0,0014.90,0009.94,0008.86
2022-12-05 02:07:00,,0818.8,5.01,0.00,26.4,24.3,00.0,35.5,28.1,12.5,0002.4,0014.83,0009.80,0008.76
2022-12-05 02:08:00,,0818.9,5.00,0.00,26.3,24.3,00.0,35.5,28.1,12.7,0002.2,0015.32,0009.72,0008.68
2022-12-05 02:09:00,,0819.0,4.99,0.00,26.3,24.2,00.0,35.4,28.1,12.8,0002.2,0015.40,0009.68,0008.68
2022-12-05 02:10:00,,0818.9,5.01,0.00,26.3,24.2,00.0,35.4,28.0,12.7,0001.8,0015.66,0009.62,0008.67
2022-12-05 02:11:00,,0818.9,5.00,0.00,26.2,24.2,00.0,35.4,28.0,12.8,0001.8,0015.84,0009.58,0008.68
2022-12-05 02:12:00,,0818.9,5.00,0.00,26.2,24.3,00.0,35.3,28.0,12.8,0002.1,0015.83,0009.46,0008.65
2022-12-05 02:13:00,,0818.8,4.99,0.00,26.2,24.4,00.0,35.3,27.9,12.8,0002.4,0016.29,0009.48,0008.65
2022-12-05 02:14:00,,0818.7,5.00,0.00,26.2,24.5,00.0,35.3,27.9,12.7,0002.0,0016.76,0009.49,0008.66
2022-12-05 02:15:00,,0818.6,5.00,0.00,26.2,24.5,00.0,35.3,28.0,12.7,0002.2,0016.88,0009.46,0008.64
2022-12-05 02:16:00,,0818.4,5.00,0.00,26.2,24.5,00.0,35.3,28.0,12.7,0002.2,0016.98,0009.46,0008.63
2022-12-05 02:17:00,,0818.4,5.00,0.00,26.2,24.5,00.0,35.3,28.0,12.7,0002.4,0017.14,0009.47,0008.66
2022-12-05 02:18:00,,0818.5,5.00,0.00,26.2,24.5,00.0,35.2,28.0,12.8,0002.5,0017.19,0009.52,0008.68
2022-12-05 02:19:00,,0818.7,5.00,0.00,26.2,24.4,00.0,35.2,28.0,12.8,0002.1,0016.57,0009.54,0008.70
2022-12-05 02:20:00,,0818.7,5.00,0.00,26.2,24.5,00.0,35.2,28.0,12.7,0001.2,0016.39,0009.53,0008.68
2022-12-05 02:21:00,,0818.6,5.00,0.00,26.1,24.4,00.0,35.2,28.0,12.8,0001.4,0016.07,0009.52,0008.64
2022-12-05 02:22:00,,0818.7,5.00,0.00,26.1,24.3,00.0,35.2,27.9,12.8,0001.6,0015.99,0009.49,0008.60
2022-12-05 02:23:00,,0818.9,4.99,0.00,26.1,24.3,00.0,35.2,27.9,12.8,0000.4,0015.94,0009.53,0008.58
2022-12-05 02:24:00,,0818.9,5.01,0.00,26.1,24.4,00.0,35.1,27.9,12.9,0000.1,0015.86,0009.53,0008.58
2022-12-05 02:25:00,,0818.9,5.01,0.00,26.1,24.4,00.0,35.1,27.9,13.0,-000.1,0015.39,0009.51,0008.56
2022-12-05 02:26:00,,0818.9,4.99,0.00,26.1,24.5,00.0,35.1,27.9,13.0,0000.1,0015.17,0009.49,0008.54
2022-12-05 02:27:00,,0818.9,4.99,0.00,26.1,24.5,00.0,35.1,27.9,12.9,0000.2,0014.81,0009.46,0008.54
2022-12-05 02:28:00,,0818.8,5.00,0.00,26.1,24.6,00.0,35.1,27.9,12.9,0000.1,0014.86,0009.46,0008.53
2022-12-05 02:29:00,,0818.7,5.00,0.00,26.1,24.6,00.0,35.1,27.9,12.9,0000.2,0015.04,0009.46,0008.55
2022-12-05 02:30:00,,0818.7,5.01,0.00,26.1,24.6,00.0,35.0,28.0,12.8,0000.8,0014.91,0009.47,0008.58
2022-12-05 02:31:00,,0818.6,4.99,0.00,26.1,24.6,00.0,35.1,27.9,12.8,0000.6,0015.40,0009.48,0008.60
2022-12-05 02:32:00,,0818.5,4.99,0.00,26.1,24.5,00.0,35.1,27.9,12.8,0000.2,0015.31,0009.51,0008.63
2022-12-05 02:33:00,,0818.5,5.00,0.00,26.1,24.5,00.0,35.0,27.9,12.8,0000.0,0015.31,0009.61,0008.67
2022-12-05 02:34:00,,0818.5,5.01,0.00,26.0,24.4,00.0,35.0,27.9,12.8,0000.3,0015.37,0009.67,0008.71
2022-12-05 02:35:00,,0818.4,5.01,0.00,26.0,24.3,00.0,35.0,27.9,12.8,0000.5,0015.08,0009.67,0008.72
2022-12-05 02:36:00,,0818.6,4.98,0.00,26.0,24.3,00.0,35.0,27.8,12.9,0001.3,0015.35,0009.68,0008.74
2022-12-05 02:37:00,,0818.7,5.00,0.00,26.0,24.2,00.0,35.0,27.8,12.9,0001.0,0015.86,0009.73,0008.81
2022-12-05 02:38:00,,0818.7,5.01,0.00,26.0,24.2,00.0,35.0,27.8,12.9,0001.4,0017.29,0009.87,0008.89
2022-12-05 02:39:00,,0818.7,5.00,0.00,26.0,24.3,00.0,35.0,27.8,12.8,0001.4,0017.82,0009.91,0008.94
2022-12-05 02:40:00,,0818.8,4.99,0.00,26.0,24.3,00.0,35.0,27.8,12.9,0000.8,0018.33,0009.97,0008.95
2022-12-05 02:41:00,,0818.7,4.99,0.00,26.0,24.3,00.0,35.0,27.8,13.0,0000.8,0019.39,0009.97,0008.93
2022-12-05 02:42:00,,0818.7,5.00,0.00,25.9,24.3,00.0,34.9,27.8,13.0,0000.9,0019.82,0009.95,0008.90
2022-12-05 02:43:00,,0818.6,5.01,0.00,25.9,24.3,00.0,34.9,27.8,12.9,0000.8,0019.56,0009.90,0008.88
2022-12-05 02:44:00,,0818.6,5.01,0.00,25.9,24.2,00.0,34.9,27.7,13.0,0000.5,0019.32,0009.83,0008.86
2022-12-05 02:45:00,,0818.6,4.99,0.00,25.9,24.1,00.0,34.9,27.7,13.0,0000.5,0019.46,0009.74,0008.83
2022-12-05 02:46:00,,0818.7,5.00,0.00,25.9,24.0,00.0,34.9,27.7,13.0,0000.6,0019.91,0009.72,0008.83
2022-12-05 02:47:00,,0818.5,5.00,0.00,25.8,24.0,00.0,34.9,27.6,13.0,0000.3,0020.70,0009.74,0008.82
2022-12-05 02:48:00,,0818.4,5.01,0.00,25.8,23.9,00.0,34.9,27.6,13.0,0000.3,0020.28,0009.71,0008.80
2022-12-05 02:49:00,,0818.4,5.00,0.00,25.8,23.9,00.0,34.9,27.6,13.0,0000.2,0019.44,0009.61,0008.74
2022-12-05 02:50:00,,0818.5,5.01,0.00,25.8,23.8,00.0,34.8,27.6,13.0,0000.6,0019.89,0009.59,0008.71
2022-12-05 02:51:00,,0818.5,5.00,0.00,25.7,23.8,00.0,34.8,27.5,13.0,0000.7,0019.88,0009.55,0008.70
2022-12-05 02:52:00,,0818.5,5.00,0.00,25.7,23.8,00.0,34.8,27.5,13.1,0001.1,0018.90,0009.56,0008.71
2022-12-05 02:53:00,,0818.6,5.00,0.00,25.7,23.8,00.0,34.8,27.5,13.1,0001.4,0017.89,0009.53,0008.71
2022-12-05 02:54:00,,0818.6,5.01,0.00,25.7,23.7,00.0,34.8,27.5,13.1,0002.3,0018.33,0009.53,0008.72
2022-12-05 02:55:00,,0818.7,5.01,0.00,25.6,23.8,00.0,34.7,27.4,13.2,0002.8,0018.73,0009.51,0008.71
2022-12-05 02:56:00,,0818.8,4.98,0.00,25.6,23.9,00.0,34.7,27.5,13.2,0003.3,0018.41,0009.50,0008.69
2022-12-05 02:57:00,,0818.8,5.01,0.00,25.6,24.0,00.0,34.7,27.5,13.2,0002.9,0018.06,0009.53,0008.70
2022-12-05 02:58:00,,0818.7,5.00,0.00,25.6,24.0,00.0,34.7,27.5,13.2,0002.8,0017.39,0009.53,0008.71
2022-12-05 02:59:00,,0818.5,4.99,0.00,25.6,24.1,00.0,34.6,27.5,13.3,0003.5,0017.49,0009.54,0008.71
